Zurück zum Katalog

SL-12 R/B(2)

AktivGEO
NORAD 14005·ROCKET BODY·🇷🇺 Russia

Gestartet Jul 5, 1979 von Baikonur Cosmodrome

Loading…

TLE

AktuellSource: Space-Track

Epoche: Sep 14, 2026, 16:35 UTC

1 14005U 79062D   26257.69097487 -.00000068  00000-0  00000-0 0  9991
2 14005   7.0496 292.1313 0004933 285.4133 250.2538  0.97670949122667

Verfolge SL-12 R/B(2) in Echtzeit mit AllMySat

Download on the App Store